Back to catalog

CZ-4 DEB

AliveSSO
NORAD 26159·DEBRIS·🇨🇳 China

Launched Oct 14, 1999 from Taiyuan Satellite Launch Center

Loading…

Next Passes (next 24 hours)

TLE

FreshSource: Space-Track

Epoch: Sep 14, 2026, 09:47 UTC

1 26159U 99057AV  26257.40790602  .00000526  00000-0  25155-3 0  9997
2 26159  99.3762 230.8214 0294007 113.7196  36.2513 14.03136155340535

Track CZ-4 DEB in real time with AllMySat

Download on the App Store